Budapest Ferihegy, Hungary

6:33 AM CEST on May 27, 2018 (GMT +0200)
Ferihegy

Weather History for LHBP - March, 2014

Change the Weather History Date:

Wednesday, March 19, 2014

  Actual Average Record
Temperature  
Mean Temperature 51 °F -  
Max Temperature 60 °F 55 °F 69 °F (2004)
Min Temperature 42 °F 36 °F 24 °F (2018)
Degree Days  
Heating Degree Days 14    
Growing Degree Days 1 (Base 50)    
Moisture  
Dew Point 38 °F    
Average Humidity 61    
Maximum Humidity 93    
Minimum Humidity 39    
Precipitation  
Precipitation 0.00 in - - ()
Sea Level Pressure  
Sea Level Pressure 30.02 in    
Wind  
Wind Speed 11 mph ()    
Max Wind Speed 36 mph    
Max Gust Speed 50 mph    
Visibility 6.2 miles    
Events      
Averages and records for this station are not official NWS values.
T = Trace of Precipitation, MM = Missing Value Source: Averaged Metar Reports

Daily Weather History Graph

Daily Weather History Graph

Search for Another Location

Airport or City:

Astronomy

Mar. 19, 2014 Rise Set
Actual Time 5:48 AM CET 5:53 PM CET
Civil Twilight 5:17 AM CET 6:24 PM CET
Nautical Twilight 4:41 AM CET 7:00 PM CET
Astronomical Twilight 4:05 AM CET 7:37 PM CET
Moon 9:07 PM CET (3/19) 6:51 AM CET (3/19)
Length of Visible Light 13h 06m
Length of Day
12h 05m
Waning Gibbous, 92% of the Moon is Illuminated
Mar 19
Waning Gibbous
Mar 24
Last Quarter
Mar 30
New
Apr 7
First Quarter
Apr 15
Full

Hourly Weather History & Observations

Time (CET) Temp. Windchill Dew Point Humidity Pressure Visibility Wind Dir Wind Speed Gust Speed Precip Events Conditions
12:00 AM 50.0 °F - 42.8 °F 76% 29.92 in - ESE 4.6 mph - N/A   Clear
12:30 AM 48.2 °F - 41.0 °F 76% 29.92 in - Variable 3.5 mph - N/A   Clear
1:00 AM 46.4 °F 45.2 °F 41.0 °F 81% 29.92 in - Variable 3.5 mph - N/A   Clear
1:30 AM 44.6 °F 43.1 °F 39.2 °F 81% 29.89 in - Variable 3.5 mph - N/A   Clear
2:00 AM 44.6 °F - 41.0 °F 87% 29.89 in - Variable 2.3 mph - N/A   Clear
2:30 AM 42.8 °F - 39.2 °F 87% 29.89 in - Calm Calm - N/A   Clear
3:00 AM 42.8 °F 39.3 °F 39.2 °F 87% 29.89 in - NNW 5.8 mph - N/A   Clear
3:30 AM 42.8 °F - 39.2 °F 87% 29.89 in - Variable 1.2 mph - N/A   Clear
4:00 AM 42.8 °F 41.1 °F 39.2 °F 87% 29.89 in - Variable 3.5 mph - N/A   Clear
4:30 AM 42.8 °F - 39.2 °F 87% 29.89 in - Variable 1.2 mph - N/A   Clear
5:00 AM 44.6 °F 41.4 °F 41.0 °F 87% 29.86 in - SE 5.8 mph - N/A   Clear
5:30 AM 44.6 °F - 42.8 °F 93% 29.89 in - Variable 1.2 mph - N/A   Clear
6:00 AM 44.6 °F - 41.0 °F 87% 29.89 in - Variable 1.2 mph - N/A   Clear
6:30 AM 46.4 °F - 42.8 °F 87% 29.92 in - Variable 1.2 mph - N/A   Clear
7:00 AM 51.8 °F - 44.6 °F 76% 29.92 in - SW 6.9 mph - N/A   Clear
7:30 AM 51.8 °F - 44.6 °F 76% 29.92 in 6.2 mi WSW 6.9 mph - N/A   Mostly Cloudy
8:00 AM 57.2 °F - 41.0 °F 55% 29.95 in 6.2 mi WNW 21.9 mph 33.4 mph N/A   Scattered Clouds
8:30 AM 55.4 °F - 39.2 °F 54% 29.98 in 6.2 mi WNW 21.9 mph 38.0 mph N/A   Scattered Clouds
9:00 AM 57.2 °F - 37.4 °F 48% 29.98 in 6.2 mi WNW 24.2 mph 35.7 mph N/A   Scattered Clouds
9:30 AM 57.2 °F - 33.8 °F 41% 29.98 in - WNW 31.1 mph 43.7 mph N/A   Clear
10:00 AM 59.0 °F - 33.8 °F 39% 29.98 in - WNW 32.2 mph - N/A   Clear
10:30 AM 59.0 °F - 33.8 °F 39% 30.01 in - WNW 35.7 mph 49.5 mph N/A   Clear
11:00 AM 57.2 °F - 33.8 °F 41% 30.04 in 6.2 mi WNW 32.2 mph 43.7 mph N/A   Unknown
11:30 AM 57.2 °F - 33.8 °F 41% 30.04 in 6.2 mi WNW 29.9 mph 41.4 mph N/A   Unknown
12:00 PM 57.2 °F - 33.8 °F 41% 30.04 in 6.2 mi WNW 32.2 mph - N/A   Unknown
12:30 PM 60.8 °F - 37.4 °F 42% 30.04 in 6.2 mi NW 29.9 mph - N/A   Unknown
1:00 PM 59.0 °F - 37.4 °F 45% 30.04 in 6.2 mi West 27.6 mph - N/A   Unknown
1:30 PM 59.0 °F - 35.6 °F 42% 30.01 in 6.2 mi WNW 28.8 mph 41.4 mph N/A   Unknown
2:00 PM 59.0 °F - 35.6 °F 42% 30.04 in 6.2 mi WNW 29.9 mph 41.4 mph N/A   Unknown
2:30 PM 60.8 °F - 35.6 °F 39% 30.04 in 6.2 mi WNW 32.2 mph - N/A   Unknown
3:00 PM 59.0 °F - 33.8 °F 39% 30.04 in 6.2 mi WNW 31.1 mph - N/A   Unknown
3:30 PM 57.2 °F - 33.8 °F 41% 30.04 in - WNW 27.6 mph - N/A   Clear
4:00 PM 57.2 °F - 35.6 °F 44% 30.06 in - WNW 23.0 mph - N/A   Clear
4:30 PM 57.2 °F - 35.6 °F 44% 30.06 in - WNW 24.2 mph - N/A   Clear
5:00 PM 57.2 °F - 33.8 °F 41% 30.06 in - WNW 21.9 mph - N/A   Clear
5:30 PM 55.4 °F - 33.8 °F 44% 30.09 in - NW 18.4 mph - N/A   Clear
6:00 PM 53.6 °F - 35.6 °F 51% 30.12 in - NW 17.3 mph - N/A   Clear
6:30 PM 53.6 °F - 35.6 °F 51% 30.12 in - WNW 16.1 mph - N/A   Clear
7:00 PM 51.8 °F - 37.4 °F 58% 30.15 in - West 12.7 mph - N/A   Clear
7:30 PM 51.8 °F - 37.4 °F 58% 30.15 in - West 19.6 mph - N/A   Clear
8:00 PM 51.8 °F - 37.4 °F 58% 30.18 in - West 12.7 mph - N/A   Clear
8:30 PM 51.8 °F - 37.4 °F 58% 30.18 in - WNW 15.0 mph - N/A   Clear
9:00 PM 51.8 °F - 37.4 °F 58% 30.18 in - West 9.2 mph - N/A   Clear
9:30 PM 50.0 °F - 37.4 °F 62% 30.21 in - West 10.4 mph - N/A   Clear
10:00 PM 51.8 °F - 37.4 °F 58% 30.21 in - West 12.7 mph - N/A   Clear
10:30 PM 50.0 °F - 37.4 °F 62% 30.21 in - WNW 12.7 mph - N/A   Clear
11:00 PM 46.4 °F 41.5 °F 37.4 °F 71% 30.21 in - WNW 10.4 mph - N/A   Clear
11:30 PM 46.4 °F 42.4 °F 37.4 °F 71% 30.21 in - WNW 8.1 mph - N/A   Clear